Location: Deneb Observatory
(47.2267°N, 100.4953°W)
Time: 18:48:54
(UTC-05:00)

Amateur Radio Satellites - All Passes

Search period start: 28 March 2015 18:18
Search period end: 29 March 2015 18:18
Location: Deneb Observatory, 47.2267°N, 100.4953°W

Satellite Date Start Highest point End Downlink Frequencies (MHz)
Time Altitude Azimuth
M-CUBED/EXP-1 PRIME 28 Mar 18:22:56 18:26:41 22° 96° (E) 18:30:30 437.505
KKS-1 28 Mar 18:26:48 18:28:29 12° 302° (WNW) 18:30:00 437.445
BEESAT 3 28 Mar 18:33:58 18:36:53 19° 33° (NNE) 18:39:52 437.485
JAS-2 28 Mar 18:39:58 18:45:34 24° 275° (W) 18:51:22 435.910
HO-68 28 Mar 18:50:30 18:52:04 11° 41° (NE) 18:54:00 435.675
AIST 2 28 Mar 19:02:14 19:04:42 15° 28° (NNE) 19:07:13 435.215
RS-15 28 Mar 19:19:41 19:28:37 32° 107° (ESE) 19:37:59 29.354- 29.394
GONETS M04 28 Mar 19:21:59 19:28:35 26° 81° (E) 19:35:30
SO-50 28 Mar 19:31:22 19:34:43 20° 113° (ESE) 19:38:16 436.795
BEESAT 2 28 Mar 19:33:14 19:37:11 40° 45° (NE) 19:41:06 435.950
AUBIESAT-1 28 Mar 19:33:20 19:38:12 87° 107° (ESE) 19:43:00 437.475
PRISM 28 Mar 19:36:36 19:39:51 22° 93° (E) 19:43:09 437.425
BRITE-PL 28 Mar 19:42:17 19:44:15 13° 61° (ENE) 19:46:22 437.365/2234.400
PCSat 28 Mar 19:43:24 19:45:01 11° 343° (NNW) 19:46:33 145.827
Cubesat XI-IV 28 Mar 19:46:49 19:51:55 41° 263° (W) 19:56:59 437.490
CUTE-I 28 Mar 19:46:54 19:52:00 42° 263° (W) 19:57:04 437.470
MOZHAYETS 4 28 Mar 19:53:39 19:57:12 21° 297° (WNW) 20:00:37
M-CUBED/EXP-1 PRIME 28 Mar 19:57:06 20:01:51 54° 294° (WNW) 20:06:33 437.505
CUBESAT XI-V 28 Mar 20:00:13 20:04:45 50° 99° (E) 20:09:15 437.345
BEESAT 3 28 Mar 20:11:21 20:15:30 82° 237° (WSW) 20:19:35 437.485
COMPASS 1 28 Mar 20:24:02 20:25:42 12° 60° (ENE) 20:27:31 437.405
DOVE 4 28 Mar 20:25:58 20:28:16 15° 62° (ENE) 20:30:42 437.250
STRAND 1 28 Mar 20:26:02 20:30:59 47° 99° (E) 20:35:55 437.568
HO-68 28 Mar 20:31:30 20:38:05 43° 62° (ENE) 20:44:48 435.675
GOMX 1 28 Mar 20:31:47 20:35:17 24° 67° (ENE) 20:38:44 467.674
AIST 2 28 Mar 20:39:54 20:44:10 63° 50° (NE) 20:48:21 435.215
CANX-2 28 Mar 20:48:56 20:52:40 31° 68° (ENE) 20:56:29 2200.000
CUTE 1.7 + AOD 2 28 Mar 21:02:46 21:06:42 39° 70° (ENE) 21:10:42 437.475
AUBIESAT-1 28 Mar 21:09:22 21:12:26 17° 306° (NW) 21:15:20 437.475
SO-50 28 Mar 21:10:12 21:14:51 63° 311° (NW) 21:19:41 436.795
PRISM 28 Mar 21:11:35 21:15:30 38° 291° (WNW) 21:19:21 437.425
BEESAT 2 28 Mar 21:11:41 21:15:11 26° 244° (WSW) 21:18:36 435.950
GONETS M04 28 Mar 21:15:55 21:24:38 77° 282° (WNW) 21:33:26
DELFI C3 28 Mar 21:17:11 21:19:17 14° 62° (ENE) 21:21:33 145.870
BRITE-PL 28 Mar 21:17:39 21:22:22 83° 259° (WSW) 21:26:46 437.365/2234.400
UKube-1 28 Mar 21:23:51 21:24:20 10° 57° (ENE) 21:25:01 .
RS-15 28 Mar 21:29:04 21:40:00 80° 310° (NW) 21:51:15 29.354- 29.394
AAUSAT CUBESAT 2 28 Mar 21:30:22 21:34:22 46° 71° (ENE) 21:38:25 437.432
DX 1 28 Mar 21:31:22 21:33:18 13° 59° (ENE) 21:35:25 434.975-435.025
SEEDS 28 Mar 21:32:58 21:37:09 68° 74° (ENE) 21:41:23 437.485
M-CUBED/EXP-1 PRIME 28 Mar 21:35:06 21:35:49 10° 312° (NW) 21:36:19 437.505
CUBESAT XI-V 28 Mar 21:38:21 21:41:54 21° 297° (WNW) 21:45:20 437.345
CINEMA 3 28 Mar 21:46:53 21:50:54 47° 71° (ENE) 21:54:55 145.822/145.860
Oscar 11 28 Mar 21:49:42 21:53:40 37° 69° (ENE) 21:57:42 145.826/435.025
COMPASS 1 28 Mar 21:56:38 22:00:50 82° 258° (WSW) 22:05:05 437.405
CUSAT 1 28 Mar 21:57:29 22:00:05 36° 98° (E) 22:02:32 437.405
FUNcube-1 28 Mar 21:59:20 22:02:41 25° 66° (ENE) 22:06:07 145.935
UWE-3 28 Mar 22:01:09 22:04:48 31° 68° (ENE) 22:08:32 435.000/436.395/437.385
DOVE 4 28 Mar 22:01:22 22:05:42 65° 259° (W) 22:09:52 437.250
CUBEBUG 2 28 Mar 22:04:16 22:08:08 40° 70° (ENE) 22:12:04 437.445
STRAND 1 28 Mar 22:05:44 22:09:59 26° 297° (WNW) 22:14:08 437.568
VELOX 1 28 Mar 22:07:54 22:10:03 14° 59° (ENE) 22:12:22 145.980
GOMX 1 28 Mar 22:09:08 22:13:20 38° 263° (W) 22:17:19 467.674
ZACube-1 28 Mar 22:11:30 22:15:11 33° 69° (ENE) 22:18:57 437.345
AISAT 28 Mar 22:11:49 22:14:19 15° 60° (ENE) 22:16:58 437.250
HO-68 28 Mar 22:19:00 22:25:50 45° 262° (W) 22:32:41 435.675
AIST 2 28 Mar 22:19:31 22:22:21 17° 247° (WSW) 22:25:00 435.215
CANX-2 28 Mar 22:24:57 22:28:39 28° 266° (W) 22:32:18 2200.000
50 SAT 28 Mar 22:29:26 22:32:05 18° 64° (ENE) 22:34:51 437.505
ESTCUBE 1 28 Mar 22:38:40 22:41:12 15° 60° (ENE) 22:43:53 437.505/2401.250
CUTE 1.7 + AOD 2 28 Mar 22:39:26 22:42:48 22° 268° (W) 22:46:07 437.475
DANDE 28 Mar 22:41:54 22:44:53 62° 282° (WNW) 22:47:31 436.750
DELFI C3 28 Mar 22:49:58 22:54:00 66° 259° (WSW) 22:58:06 145.870
SO-50 28 Mar 22:53:08 22:56:23 17° 334° (NNW) 22:59:37 436.795
UKube-1 28 Mar 22:55:27 22:59:47 75° 74° (ENE) 23:04:08 .
DX 1 28 Mar 23:04:37 23:09:00 84° 256° (WSW) 23:13:23 434.975-435.025
AAUSAT CUBESAT 2 28 Mar 23:07:18 23:10:17 18° 270° (W) 23:13:12 437.432
HUMSAT D 28 Mar 23:08:05 23:12:09 67° 74° (ENE) 23:16:16 437.325/437.525
SEEDS 28 Mar 23:11:28 23:13:31 13° 273° (W) 23:15:22 437.485
PCSat 28 Mar 23:12:35 23:16:43 22° 35° (NE) 23:20:56 145.827
YUBILEINY 28 Mar 23:15:17 23:16:54 11° 41° (NE) 23:19:05 435.215
GONETS M04 28 Mar 23:17:13 23:23:20 20° 307° (NW) 23:29:09
CINEMA 3 28 Mar 23:25:35 23:28:27 17° 270° (W) 23:31:12 145.822/145.860
Oscar 11 28 Mar 23:26:27 23:30:00 24° 268° (W) 23:33:30 145.826/435.025
FUNcube-1 28 Mar 23:35:08 23:38:56 34° 264° (W) 23:42:44 145.935
UWE-3 28 Mar 23:37:54 23:41:25 26° 266° (W) 23:44:55 435.000/436.395/437.385
POPSAT HIP 1 28 Mar 23:39:29 23:41:24 13° 88° (E) 23:43:31 437.405
VELOX 1 28 Mar 23:41:37 23:46:05 81° 256° (WSW) 23:50:33 145.980
CUBEBUG 2 28 Mar 23:41:55 23:45:05 20° 269° (W) 23:48:10 437.445
UNISAT 6 28 Mar 23:43:19 23:47:16 29° 94° (E) 23:51:20 437.425
CUBEBUG 1 28 Mar 23:43:59 23:48:15 51° 71° (ENE) 23:52:32 437.445
RS-15 28 Mar 23:44:19 23:54:20 37° 340° (NNW) 00:04:37 29.354- 29.394
AISAT 28 Mar 23:46:01 23:50:27 71° 257° (WSW) 23:54:54 437.250
ZACube-1 28 Mar 23:48:10 23:51:39 25° 267° (W) 23:55:05 437.345
NANOSAT C BR1 28 Mar 23:49:47 23:52:29 17° 90° (E) 23:55:18 145.865
TISAT 1 28 Mar 23:50:09 23:52:36 16° 62° (ENE) 23:55:11 437.305
POLYITAN 1 28 Mar 23:53:10 23:56:07 19° 91° (E) 23:59:11 437.675
TIGRISAT 28 Mar 23:53:47 23:57:57 35° 96° (E) 00:02:13 435.000
SPROUT 28 Mar 23:57:06 00:00:15 21° 64° (ENE) 00:03:29 437.525
50 SAT 29 Mar 00:02:59 00:06:44 44° 261° (W) 00:10:32 437.505
ESTCUBE 1 29 Mar 00:13:00 00:17:34 75° 258° (WSW) 00:22:09 437.505/2401.250
ANTELSAT 29 Mar 00:23:29 00:28:03 71° 102° (ESE) 00:32:41 437.575/2403.000
QB50P1 29 Mar 00:30:08 00:34:11 43° 98° (E) 00:38:14 145.935-145.965
DUCHIFAT 1 29 Mar 00:32:24 00:36:27 44° 98° (E) 00:40:30 145.980
ISS 29 Mar 00:32:59 00:36:04 40° 146° (SE) 00:39:09 145.825
UKube-1 29 Mar 00:34:40 00:36:33 12° 273° (W) 00:38:14 .
SO-50 29 Mar 00:38:34 00:38:55 10° 358° (N) 00:39:15 436.795
QB50P2 29 Mar 00:44:37 00:48:50 63° 101° (E) 00:53:03 145.880/145.840
HUMSAT D 29 Mar 00:46:38 00:48:28 12° 273° (W) 00:50:09 437.325/437.525
PCSat 29 Mar 00:55:28 01:00:56 89° 37° (NE) 01:06:22 145.827
ITUPSAT 1 29 Mar 01:05:22 01:08:36 19° 61° (ENE) 01:11:58 437.325
YUBILEINY 29 Mar 01:08:35 01:16:56 45° 69° (ENE) 01:25:17 435.215
POPSAT HIP 1 29 Mar 01:13:36 01:17:49 67° 286° (WNW) 01:22:01 437.405
BUGSAT 1 29 Mar 01:16:25 01:20:29 84° 288° (WNW) 01:24:31 437.445
UNISAT 6 29 Mar 01:19:58 01:24:07 35° 292° (WNW) 01:28:17 437.425
CUBEBUG 1 29 Mar 01:21:50 01:24:58 18° 270° (W) 01:27:58 437.445
TISAT 1 29 Mar 01:23:48 01:27:59 63° 259° (WSW) 01:32:11 437.305
NANOSAT C BR1 29 Mar 01:24:35 01:28:42 51° 288° (WNW) 01:32:48 145.865
POLYITAN 1 29 Mar 01:28:15 01:32:20 46° 289° (WNW) 01:36:24 437.675
TIGRISAT 29 Mar 01:30:43 01:34:38 29° 293° (WNW) 01:38:33 435.000
SPROUT 29 Mar 01:31:57 01:36:05 45° 262° (W) 01:40:14 437.525
SWISSCUBE 29 Mar 01:51:50 01:56:27 49° 70° (ENE) 02:01:08 437.505
BEESAT 29 Mar 01:54:56 01:59:32 49° 70° (ENE) 02:04:11 436.000
RS-15 29 Mar 02:00:42 02:10:34 34° 13° (NNE) 02:20:54 29.354- 29.394
ANTELSAT 29 Mar 02:01:33 02:04:23 16° 299° (WNW) 02:07:07 437.575/2403.000
QB50P1 29 Mar 02:06:36 02:09:50 21° 296° (WNW) 02:12:59 145.935-145.965
DUCHIFAT 1 29 Mar 02:08:52 02:12:02 20° 296° (WNW) 02:15:07 145.980
ISS 29 Mar 02:09:17 02:12:27 49° 344° (NNW) 02:15:38 145.825
KKS-1 29 Mar 02:14:38 02:17:22 17° 61° (ENE) 02:20:15 437.445
SO-50 29 Mar 02:18:39 02:21:32 15° 23° (NNE) 02:24:31 436.795
QB50P2 29 Mar 02:21:44 02:24:20 16° 298° (WNW) 02:26:48 145.880/145.840
PCSat 29 Mar 02:40:32 02:43:41 15° 255° (WSW) 02:46:35 145.827
ITUPSAT 1 29 Mar 02:41:16 02:46:04 66° 258° (WSW) 02:50:53 437.325
STARS 29 Mar 02:47:18 02:50:37 22° 64° (ENE) 02:54:03 437.465
Oscar 19 29 Mar 02:58:32 03:03:33 49° 99° (E) 03:08:35 437.125/150
YUBILEINY 29 Mar 03:05:34 03:13:55 48° 271° (W) 03:22:08 435.215
Gurwin Techsat 1B 29 Mar 03:10:06 03:13:39 18° 88° (E) 03:17:23 435.225
SWISSCUBE 29 Mar 03:30:50 03:34:37 22° 268° (W) 03:38:19 437.505
BEESAT 29 Mar 03:33:53 03:37:41 22° 268° (W) 03:41:23 436.000
ISS 29 Mar 03:46:12 03:49:16 36° 4° (N) 03:52:19 145.825
MOZHAYETS 4 29 Mar 03:48:05 03:48:40 10° 56° (NE) 03:49:28
KKS-1 29 Mar 03:49:12 03:53:36 64° 258° (WSW) 03:58:01 437.445
AO-7 29 Mar 03:53:56 03:54:56 10° 79° (ENE) 03:56:41 29.400- 29.500
SO-50 29 Mar 03:58:28 04:03:17 48° 45° (NE) 04:08:05 436.795
JAS-2 29 Mar 04:02:26 04:04:40 12° 75° (ENE) 04:07:25 435.910
ITAMSAT 1 29 Mar 04:02:48 04:07:58 61° 101° (E) 04:13:05 435.822/435.867
RS-15 29 Mar 04:14:19 04:25:37 65° 44° (NE) 04:37:28 29.354- 29.394
HORYU 2 29 Mar 04:14:42 04:17:23 16° 89° (E) 04:20:13 437.375
STARS 29 Mar 04:22:40 04:26:51 44° 261° (W) 04:31:05 437.465
Oscar 19 29 Mar 04:38:24 04:42:41 26° 297° (WNW) 04:46:54 437.125/150
Gurwin Techsat 1B 29 Mar 04:48:55 04:54:14 68° 288° (WNW) 04:59:30 435.225
AUBIESAT-1 29 Mar 04:50:55 04:54:13 23° 57° (ENE) 04:57:47 437.475
M-CUBED/EXP-1 PRIME 29 Mar 05:14:15 05:18:06 41° 63° (ENE) 05:22:18 437.505
MOZHAYETS 4 29 Mar 05:20:31 05:25:06 69° 74° (ENE) 05:29:46
ISS 29 Mar 05:22:41 05:25:56 82° 22° (NNE) 05:29:10 145.825
GONETS M04 29 Mar 05:26:54 05:31:52 16° 50° (NE) 05:37:17
AIST 1 29 Mar 05:28:25 05:32:50 85° 98° (E) 05:37:16
O/OREOS (USA 219) 29 Mar 05:31:31 05:36:06 76° 113° (ESE) 05:40:44 437.305
CUBESAT XI-V 29 Mar 05:33:34 05:34:25 11° 56° (ENE) 05:35:31 437.345
SO-50 29 Mar 05:39:22 05:43:41 30° 244° (WSW) 05:47:56 436.795
AO-7 29 Mar 05:41:51 05:49:59 56° 102° (ESE) 05:58:07 29.400- 29.500
ITAMSAT 1 29 Mar 05:43:07 05:47:05 22° 299° (WNW) 05:50:55 435.822/435.867
JAS-2 29 Mar 05:43:58 05:51:41 59° 98° (E) 05:58:52 435.910
HORYU 2 29 Mar 05:50:03 05:54:31 62° 288° (WNW) 05:58:59 437.375
STRAND 1 29 Mar 06:08:36 06:11:32 16° 57° (ENE) 06:14:37 437.568
AUBIESAT-1 29 Mar 06:24:53 06:28:47 44° 257° (WSW) 06:33:02 437.475
RS-15 29 Mar 06:27:06 06:37:52 47° 247° (WSW) 06:48:53 29.354- 29.394
PRISM 29 Mar 06:29:53 06:33:22 26° 66° (ENE) 06:36:57 437.425
Gurwin Techsat 1B 29 Mar 06:31:10 06:33:21 12° 306° (NW) 06:35:18 435.225
M-CUBED/EXP-1 PRIME 29 Mar 06:49:55 06:53:13 23° 264° (W) 06:56:39 437.505
ISS 29 Mar 06:59:39 07:02:02 19° 222° (SW) 07:04:21 145.825
MOZHAYETS 4 29 Mar 07:00:13 07:02:55 15° 273° (W) 07:05:26
CUBESAT XI-V 29 Mar 07:06:24 07:11:06 70° 74° (ENE) 07:15:49 437.345
AIST 1 29 Mar 07:09:33 07:11:15 12° 299° (WNW) 07:12:44
O/OREOS (USA 219) 29 Mar 07:13:01 07:16:09 17° 314° (NW) 07:19:11 437.305
GONETS M04 29 Mar 07:22:12 07:30:59 65° 76° (ENE) 07:39:47
JAS-2 29 Mar 07:29:21 07:36:24 37° 299° (WNW) 07:42:57 435.910
AO-7 29 Mar 07:35:01 07:42:37 41° 302° (WNW) 07:50:08 29.400- 29.500
DANDE 29 Mar 07:35:52 07:36:18 10° 66° (ENE) 07:36:59 436.750
STRAND 1 29 Mar 07:44:56 07:50:07 88° 262° (W) 07:55:18 437.568
VERMONT LUNAR 29 Mar 07:54:29 07:57:07 22° 169° (SSE) 07:59:46 437.305
CUTE-I 29 Mar 08:00:24 08:05:42 62° 101° (E) 08:10:58 437.470
Cubesat XI-IV 29 Mar 08:00:29 08:05:48 63° 101° (E) 08:11:05 437.490
PRISM 29 Mar 08:04:53 08:08:46 34° 263° (W) 08:12:37 437.425
CUSAT 1 29 Mar 08:28:17 08:32:08 47° 76° (ENE) 08:37:17 437.405
PHONESAT 2.4 29 Mar 08:32:19 08:35:04 21° 167° (SSE) 08:37:51 2401.200-2431.200
CUBESAT XI-V 29 Mar 08:46:19 08:49:07 15° 273° (W) 08:51:44 437.345
DANDE 29 Mar 09:16:01 09:19:46 77° 260° (W) 09:24:50 436.750
BRITE-PL 29 Mar 09:19:31 09:22:42 21° 92° (E) 09:26:03 437.365/2234.400
GONETS M04 29 Mar 09:19:47 09:27:20 32° 277° (W) 09:34:43
STRAND 1 29 Mar 09:27:51 09:30:10 13° 275° (W) 09:32:13 437.568
AO-7 29 Mar 09:30:05 09:33:19 13° 326° (NW) 09:36:13 29.400- 29.500
VERMONT LUNAR 29 Mar 09:31:29 09:34:18 25° 185° (S) 09:37:07 437.305
COMPASS 1 29 Mar 09:38:45 09:40:48 14° 87° (E) 09:43:03 437.405
CUTE-I 29 Mar 09:41:18 09:45:24 22° 300° (WNW) 09:49:23 437.470
Cubesat XI-IV 29 Mar 09:41:26 09:45:31 22° 300° (WNW) 09:49:29 437.490
HO-68 29 Mar 09:43:01 09:49:16 32° 93° (E) 09:55:35 435.675
ANTELSAT 29 Mar 09:52:25 09:53:52 12° 58° (ENE) 09:55:30 437.575/2403.000
DOVE 4 29 Mar 09:57:10 10:00:39 24° 93° (E) 10:04:22 437.250
CANX-2 29 Mar 10:06:33 10:10:38 40° 97° (E) 10:14:43 2200.000
GOMX 1 29 Mar 10:06:56 10:10:59 43° 98° (E) 10:15:13 467.674
PHONESAT 2.4 29 Mar 10:09:51 10:12:53 27° 183° (S) 10:15:56 2401.200-2431.200
CUSAT 1 29 Mar 10:11:51 10:14:54 19° 265° (W) 10:18:24 437.405
CUTE 1.7 + AOD 2 29 Mar 10:20:27 10:24:40 51° 99° (E) 10:28:53 437.475
DELFI C3 29 Mar 10:28:02 10:30:12 14° 88° (E) 10:32:32 145.870
POPSAT HIP 1 29 Mar 10:35:30 10:38:04 16° 62° (ENE) 10:40:45 437.405
BUGSAT 1 29 Mar 10:36:53 10:38:30 12° 60° (ENE) 10:40:18 437.445
NANOSAT C BR1 29 Mar 10:45:39 10:48:40 20° 64° (ENE) 10:51:49 145.865
UNISAT 6 29 Mar 10:45:39 10:49:32 35° 68° (ENE) 10:53:31 437.425
AAUSAT CUBESAT 2 29 Mar 10:45:47 10:49:58 57° 100° (E) 10:54:09 437.432
POLYITAN 1 29 Mar 10:49:29 10:52:43 22° 65° (ENE) 10:56:01 437.675
SEEDS 29 Mar 10:49:59 10:54:18 87° 103° (ESE) 10:58:35 437.485
DX 1 29 Mar 10:51:35 10:53:36 13° 88° (E) 10:55:50 434.975-435.025
TIGRISAT 29 Mar 10:55:49 10:59:51 43° 70° (ENE) 11:03:58 435.000
BRITE-PL 29 Mar 10:57:33 11:01:27 38° 290° (WNW) 11:05:26 437.365/2234.400
BEESAT 2 29 Mar 11:08:32 11:11:58 26° 116° (ESE) 11:15:31 435.950
VERMONT LUNAR 29 Mar 11:09:37 11:11:24 14° 202° (SSW) 11:13:08 437.305
Oscar 11 29 Mar 11:09:39 11:13:54 49° 99° (E) 11:18:09 145.826/435.025
COMPASS 1 29 Mar 11:12:47 11:17:02 65° 285° (WNW) 11:21:14 437.405
CINEMA 3 29 Mar 11:14:57 11:19:20 80° 103° (ESE) 11:23:54 145.822/145.860
FUNcube-1 29 Mar 11:19:52 11:23:51 34° 96° (E) 11:27:56 145.935
UWE-3 29 Mar 11:23:30 11:27:45 46° 99° (E) 11:32:06 435.000/436.395/437.385
ANTELSAT 29 Mar 11:25:45 11:30:02 90° 78° (ENE) 11:34:24 437.575/2403.000
QB50P1 29 Mar 11:25:53 11:29:56 49° 71° (ENE) 11:34:02 145.935-145.965
DUCHIFAT 1 29 Mar 11:27:50 11:31:53 50° 72° (ENE) 11:35:59 145.980
CUBEBUG 2 29 Mar 11:28:06 11:32:28 62° 101° (E) 11:36:57 437.445
HO-68 29 Mar 11:30:22 11:37:27 59° 293° (WNW) 11:44:27 435.675
VELOX 1 29 Mar 11:30:26 11:32:59 15° 89° (E) 11:35:41 145.980
ZACube-1 29 Mar 11:32:32 11:36:45 47° 98° (E) 11:41:04 437.345
DOVE 4 29 Mar 11:34:38 11:38:35 36° 290° (WNW) 11:42:39 437.250
AISAT 29 Mar 11:34:46 11:37:41 18° 90° (E) 11:40:43 437.250
50 SAT 29 Mar 11:38:21 11:41:09 18° 91° (E) 11:44:03 437.505
QB50P2 29 Mar 11:40:29 11:44:42 71° 74° (ENE) 11:48:55 145.880/145.840
CANX-2 29 Mar 11:42:55 11:46:23 23° 295° (WNW) 11:49:45 2200.000
BEESAT 3 29 Mar 11:45:02 11:49:06 69° 124° (SE) 11:53:15 437.485
GOMX 1 29 Mar 11:45:44 11:48:58 21° 294° (WNW) 11:52:11 467.674
PHONESAT 2.4 29 Mar 11:48:20 11:50:38 16° 200° (SSW) 11:52:55 2401.200-2431.200
CUTE 1.7 + AOD 2 29 Mar 11:57:11 12:00:17 19° 296° (WNW) 12:03:16 437.475
DELFI C3 29 Mar 12:01:45 12:05:49 58° 287° (WNW) 12:09:50 145.870
ESTCUBE 1 29 Mar 12:03:37 12:06:44 19° 90° (E) 12:09:58 437.505/2401.250
BUGSAT 1 29 Mar 12:09:19 12:13:29 80° 257° (WSW) 12:17:37 437.445
POPSAT HIP 1 29 Mar 12:09:24 12:13:34 59° 259° (W) 12:17:45 437.405
UKube-1 29 Mar 12:16:00 12:20:23 89° 104° (ESE) 12:24:42 .
AIST 2 29 Mar 12:18:54 12:23:00 48° 121° (ESE) 12:27:11 435.215
NANOSAT C BR1 29 Mar 12:20:14 12:24:17 45° 261° (W) 12:28:21 145.865
AAUSAT CUBESAT 2 29 Mar 12:22:26 12:25:14 17° 297° (WNW) 12:27:53 437.432
UNISAT 6 29 Mar 12:22:53 12:26:27 25° 267° (W) 12:30:00 437.425
POLYITAN 1 29 Mar 12:24:27 12:28:27 40° 262° (W) 12:32:26 437.675
HUMSAT D 29 Mar 12:24:40 12:28:56 84° 103° (ESE) 12:33:14 437.325/437.525
DX 1 29 Mar 12:26:05 12:30:25 69° 287° (WNW) 12:34:43 434.975-435.025
SEEDS 29 Mar 12:27:46 12:29:31 12° 301° (WNW) 12:31:05 437.485
TIGRISAT 29 Mar 12:33:39 12:36:53 20° 269° (W) 12:40:02 435.000
Oscar 19 29 Mar 12:41:59 12:44:54 16° 58° (ENE) 12:48:00 437.125/150
BEESAT 2 29 Mar 12:46:03 12:49:59 41° 315° (NW) 12:53:58 435.950
Oscar 11 29 Mar 12:46:34 12:49:47 20° 296° (WNW) 12:52:55 145.826/435.025
CINEMA 3 29 Mar 12:53:53 12:56:06 13° 299° (WNW) 12:58:10 145.822/145.860
FUNcube-1 29 Mar 12:56:24 13:00:07 27° 293° (WNW) 13:03:50 145.935
UWE-3 29 Mar 13:00:42 13:04:03 21° 295° (WNW) 13:07:23 435.000/436.395/437.385
QB50P1 29 Mar 13:03:13 13:06:09 18° 270° (W) 13:08:57 145.935-145.965
DUCHIFAT 1 29 Mar 13:05:13 13:08:04 17° 270° (W) 13:10:48 145.980
VELOX 1 29 Mar 13:05:40 13:10:02 61° 288° (WNW) 13:14:23 145.980
CUBEBUG 2 29 Mar 13:05:55 13:08:48 17° 297° (WNW) 13:11:36 437.445
CUBEBUG 1 29 Mar 13:05:57 13:10:18 67° 102° (ESE) 13:14:35 437.445
TISAT 1 29 Mar 13:06:27 13:09:04 16° 90° (E) 13:11:47 437.305
ZACube-1 29 Mar 13:09:34 13:12:53 21° 295° (WNW) 13:16:09 437.345
AISAT 29 Mar 13:10:21 13:14:40 53° 289° (WNW) 13:18:57 437.250
50 SAT 29 Mar 13:12:27 13:16:18 43° 289° (WNW) 13:20:09 437.505
SPROUT 29 Mar 13:15:50 13:19:20 24° 93° (E) 13:22:53 437.525
QB50P2 29 Mar 13:19:19 13:21:11 12° 273° (W) 13:22:51 145.880/145.840
HO-68 29 Mar 13:19:54 13:23:52 15° 314° (NW) 13:27:32 435.675
BEESAT 3 29 Mar 13:24:25 13:27:36 21° 325° (NW) 13:30:46 437.485
ESTCUBE 1 29 Mar 13:39:34 13:43:59 52° 289° (WNW) 13:48:21 437.505/2401.250
ITAMSAT 1 29 Mar 13:46:25 13:50:07 21° 60° (ENE) 13:53:57 435.822/435.867
UKube-1 29 Mar 13:54:08 13:55:55 12° 302° (WNW) 13:57:32 .
AIST 2 29 Mar 13:58:06 14:01:49 27° 321° (NW) 14:05:32 435.215
O/OREOS (USA 219) 29 Mar 13:59:31 14:03:38 32° 54° (NE) 14:07:45 437.305
HUMSAT D 29 Mar 14:02:20 14:04:10 12° 300° (WNW) 14:05:49 437.325/437.525
YUBILEINY 29 Mar 14:13:29 14:21:37 45° 88° (E) 14:29:53 435.215
Oscar 19 29 Mar 14:18:31 14:23:38 87° 253° (WSW) 14:28:49 437.125/150
JAS-2 29 Mar 14:21:06 14:22:01 10° 40° (NE) 14:23:20 435.910
BEESAT 2 29 Mar 14:27:50 14:29:16 11° 337° (NNW) 14:30:36 435.950
Gurwin Techsat 1B 29 Mar 14:33:51 14:38:43 39° 67° (ENE) 14:43:40 435.225
ITUPSAT 1 29 Mar 14:39:15 14:43:13 26° 93° (E) 14:47:14 437.325
TISAT 1 29 Mar 14:41:07 14:45:13 52° 288° (WNW) 14:49:18 437.305
CUBEBUG 1 29 Mar 14:43:37 14:46:13 15° 299° (WNW) 14:48:39 437.445
SPROUT 29 Mar 14:51:36 14:55:32 36° 291° (WNW) 14:59:26 437.525
AO-7 29 Mar 14:53:57 15:00:23 27° 50° (NE) 15:07:01 29.400- 29.500
HORYU 2 29 Mar 15:16:00 15:19:24 22° 63° (ENE) 15:22:53 437.375
ITAMSAT 1 29 Mar 15:23:59 15:29:11 67° 257° (WSW) 15:34:25 435.822/435.867
SWISSCUBE 29 Mar 15:26:38 15:31:27 77° 103° (ESE) 15:36:14 437.505
BEESAT 29 Mar 15:29:35 15:34:25 76° 104° (ESE) 15:39:12 436.000
AIST 1 29 Mar 15:32:50 15:36:35 28° 71° (ENE) 15:40:21
KKS-1 29 Mar 15:37:57 15:41:10 20° 91° (E) 15:44:29 437.445
O/OREOS (USA 219) 29 Mar 15:38:58 15:43:04 32° 254° (WSW) 15:47:04 437.305
PCSat 29 Mar 15:40:15 15:45:18 43° 115° (ESE) 15:50:28 145.827
JAS-2 29 Mar 15:58:36 16:05:00 39° 62° (ENE) 16:12:02 435.910
Oscar 19 29 Mar 16:01:46 16:03:54 12° 275° (W) 16:05:45 437.125/150
STARS 29 Mar 16:09:30 16:13:12 26° 94° (E) 16:16:57 437.465
YUBILEINY 29 Mar 16:10:01 16:18:29 48° 290° (WNW) 16:26:57 435.215
Gurwin Techsat 1B 29 Mar 16:14:01 16:18:48 33° 265° (W) 16:23:33 435.225
ITUPSAT 1 29 Mar 16:16:46 16:21:18 42° 292° (WNW) 16:25:47 437.325
AO-7 29 Mar 16:44:01 16:52:22 88° 255° (WSW) 17:00:43 29.400- 29.500
HORYU 2 29 Mar 16:51:33 16:55:49 45° 262° (W) 17:00:06 437.375
SWISSCUBE 29 Mar 17:05:49 17:08:47 16° 301° (WNW) 17:11:36 437.505
BEESAT 29 Mar 17:08:44 17:11:44 16° 301° (WNW) 17:14:34 436.000
AIST 1 29 Mar 17:10:29 17:14:15 29° 270° (W) 17:17:55
KKS-1 29 Mar 17:13:49 17:18:07 48° 290° (WNW) 17:22:23 437.445
MOZHAYETS 4 29 Mar 17:14:13 17:16:27 14° 86° (E) 17:18:54
PCSat 29 Mar 17:23:49 17:28:51 37° 315° (NW) 17:33:53 145.827
JAS-2 29 Mar 17:42:58 17:49:49 54° 263° (W) 17:57:20 435.910
STARS 29 Mar 17:45:44 17:49:46 35° 292° (WNW) 17:53:45 437.465
CUTE-I 29 Mar 17:47:12 17:51:13 23° 61° (ENE) 17:55:23 437.470
Cubesat XI-IV 29 Mar 17:47:23 17:51:28 23° 61° (ENE) 17:55:38 437.490
BEESAT 2 29 Mar 17:47:45 17:49:26 12° 25° (NNE) 17:51:13 435.950
AUBIESAT-1 29 Mar 18:04:37 18:06:39 13° 91° (E) 18:08:54 437.475
